Погода в Озерном

Россия / Амурская область     51°14′56″N   128°16′05″E
темп.,
°C
ветер,
м/с
пор.,
м/с
влажн.,
%
обл.,
%
осадки,
мм/ч
давл.,
гПа
погр.,
м
28 июня, вт
вт2800:00+19зсз119194 1.6 100211
03:00+17ю019458 4.2 100114
06:00+18юв1192100 0.4 100163
09:00+22ююз23786 0.5 1000549
12:00+25юв22615 3.0 9991108
15:00+27ююв22525 3.3 9981590
18:00+26ююз116256 0.1 998658
21:00+20юв22844 2.7 99914
29 июня, ср
ср2900:00+18всв01866 0.6 100011
03:00+18всв11902 0.6 100011
06:00+18ссв23923 0.0 1002109
09:00+23св237686 0.0 1003498
12:00+26св336483 1.5 1003990
15:00+27всв3353100 1.5 10031163
18:00+26вюв3366100 0.0 1003412
21:00+21ююв228296 0.1 100511
30 июня, чт
чт3000:00+19ююв3391100 0.0 100535
03:00+18ююз1292100 0.0 100711
06:00+20ююв1184100 0.0 100851
09:00+24ююв3469100 0.0 1009554
12:00+25ююв3361100 0.0 1009770
15:00+25ю3366100 0.0 1009449
18:00+25ю226217 0.0 1008436
21:00+20ссв118188 0.0 100811
1 июля, пт
пт100:00+18ююв2291100 0.0 100921
03:00+17ююв119354 0.0 101011
06:00+19вюв12885 0.0 101081
09:00+24юв33700 0.0 1010587
12:00+27ю33601 0.0 10091075
15:00+28ю44561 0.0 10081375
18:00+27ю44660 0.0 1007880
21:00+21ююз33890 0.0 100626
2 июля, сб
сб200:00+19ююз33931 0.0 100738
03:00+18ю22947 0.0 100613
06:00+19ю36932 0.0 1006168
09:00+25ю46690 0.0 1005533
12:00+28ю55570 0.0 10041171
15:00+29ю55540 0.0 10031259
18:00+28ююв45660 0.0 1002812
21:00+23ююв49900 0.0 1003173